Theta_e
345 347 346 345 345 346 350 352 350 352 351 351 350 350 350 349 349 349 349 349 349 347 345 345 345 344 345 346 344 345 344 345 344 345 344 344 344 344 344 345 345 344 344 345 346 346 347 347 347 347 346 343 345 338 337 337 336 336 335 339 338 333
345 346 345 346 346 347 348 350 347 347 348 348 349 349 347 346 349 346 349 348 344 347 342 341 342 347 346 346 344 345 345 345 344 345 344 344 344 344 345 345 345 345 345 346 346 342 339 341 344 345 343 339 334 334 336 337 336 334 336 336 337 334
347 346 346 346 346 346 345 346 346 345 347 349 349 348 343 346 343 343 346 344 345 344 341 342 342 344 346 347 346 345 345 345 345 345 345 343 343 344 344 345 345 345 345 345 341 336 336 336 335 340 338 332 330 332 334 335 335 334 336 335 335 336
347 348 346 346 347 346 343 343 344 345 343 343 344 345 341 342 342 342 343 342 341 342 341 339 347 347 346 345 343 346 345 345 345 345 345 344 344 344 345 345 345 345 346 340 336 335 336 335 336 333 331 330 330 331 332 333 333 335 335 335 334 338
347 347 347 346 347 346 343 347 345 342 342 341 341 341 340 339 340 340 340 341 340 342 339 338 339 341 341 340 339 339 340 340 342 341 345 339 339 339 340 336 337 339 335 335 336 336 335 335 335 333 332 331 330 330 331 334 334 334 334 334 336 340
346 347 347 346 346 347 346 346 346 343 340 341 340 339 339 338 338 338 338 341 342 339 338 337 337 338 338 338 339 339 337 336 338 339 345 338 338 337 335 335 335 335 336 335 335 335 335 337 334 333 332 331 330 330 331 332 333 332 332 333 337 340
344 346 346 346 346 346 344 347 346 344 341 342 343 340 339 337 337 337 338 343 342 341 339 338 336 336 337 336 338 338 337 336 336 337 340 338 338 337 336 336 334 335 333 333 334 334 333 333 333 331 331 330 330 330 331 331 332 332 332 334 336 341
343 344 344 345 345 345 345 345 346 347 345 345 344 342 340 339 338 336 338 341 345 343 341 340 338 336 337 335 337 337 336 336 336 336 338 338 337 336 336 336 335 333 334 334 334 334 333 333 332 332 331 331 330 330 330 331 333 332 332 335 336 341
342 343 343 344 344 345 345 345 345 345 344 347 343 343 342 341 339 339 339 340 344 342 342 341 339 339 337 336 335 335 336 336 336 336 337 338 338 337 336 336 336 335 334 333 333 333 333 334 333 332 331 330 330 329 329 330 332 331 331 334 336 339
341 341 342 341 341 343 344 343 344 344 344 347 343 343 343 341 341 340 338 339 342 343 342 340 340 340 338 337 335 334 335 335 335 336 337 336 338 338 337 336 336 335 335 334 334 334 336 334 333 333 331 331 330 329 329 329 330 331 331 333 335 338
340 341 340 337 335 338 342 343 344 344 344 345 344 343 342 341 341 340 340 339 340 343 342 341 340 339 338 338 336 335 334 334 335 335 336 337 338 338 338 337 336 336 335 334 334 335 335 333 333 332 333 331 331 331 330 330 331 331 330 332 334 337
339 339 337 335 335 335 339 342 343 343 343 344 344 342 342 341 341 340 340 340 339 340 343 341 340 338 337 336 336 335 334 334 334 335 336 336 337 338 337 337 337 336 335 334 334 333 333 332 331 331 331 330 330 330 329 329 330 331 331 332 333 336
340 338 337 334 334 334 337 341 342 342 343 343 343 342 341 341 341 340 340 340 339 340 341 339 339 338 338 336 336 335 334 335 335 335 336 337 337 337 337 336 336 337 336 334 332 332 331 332 330 331 331 330 331 329 329 328 329 331 331 332 333 335
338 337 336 335 335 334 335 338 341 341 342 342 342 342 342 341 341 340 340 340 339 340 341 339 337 336 337 335 335 335 335 334 335 335 335 336 335 336 335 335 335 335 336 336 334 334 333 331 332 331 330 330 330 330 329 329 329 330 331 332 333 335
338 335 336 335 335 333 333 335 339 339 339 340 341 341 341 341 340 340 340 339 340 340 341 340 338 337 336 335 334 334 334 335 335 335 335 335 335 335 335 335 335 334 334 334 333 334 333 332 331 330 330 331 330 329 329 328 329 330 331 332 333 334
335 334 334 334 333 333 333 333 336 340 338 338 340 339 340 340 340 340 340 339 340 340 340 340 339 338 336 335 335 334 335 335 335 335 335 335 335 334 334 334 335 335 333 333 333 332 332 330 329 328 329 329 328 330 329 329 331 331 332 332 332 334
333 333 332 333 332 332 333 333 335 339 338 337 337 338 338 338 339 338 339 339 339 340 340 340 340 339 338 336 336 335 335 335 335 335 335 335 335 336 335 334 334 335 334 333 332 330 331 330 329 329 329 328 328 331 331 331 332 332 332 331 331 333
335 335 334 332 332 332 333 334 335 338 339 337 336 337 337 338 337 338 338 338 339 340 341 340 340 340 338 338 337 336 335 335 335 335 335 335 333 335 335 334 333 334 334 332 330 329 328 329 330 330 330 329 329 331 332 332 333 337 333 331 331 331
335 335 334 333 333 331 332 333 335 336 337 338 337 338 338 337 338 338 338 338 339 340 341 341 340 340 339 339 338 337 336 336 336 336 335 333 332 333 333 334 332 333 334 332 330 330 329 330 330 329 328 328 331 332 332 332 335 336 333 333 332 332
333 335 336 336 335 334 334 335 335 335 335 336 337 338 339 339 339 338 339 339 338 339 340 341 340 340 339 339 338 338 337 337 336 336 333 331 331 331 331 332 332 332 332 331 332 331 331 330 331 329 331 333 331 331 332 335 335 334 335 334 335 336
333 334 334 334 336 335 333 332 332 332 333 335 336 337 337 339 339 339 340 340 340 340 340 341 341 340 339 340 339 338 337 337 337 335 332 331 331 331 332 333 333 333 331 329 330 332 332 332 329 328 328 328 330 332 337 335 334 334 334 335 336 338
332 332 333 335 335 336 335 335 332 331 330 331 332 332 334 336 338 339 340 339 339 340 340 340 341 340 340 339 339 338 337 336 336 335 334 334 333 334 333 332 333 330 331 330 329 331 330 330 324 324 324 326 329 327 331 333 333 334 334 335 335 337
330 330 330 333 334 333 334 334 331 329 328 328 331 333 333 334 336 337 338 339 339 339 340 340 340 342 340 339 339 338 337 337 336 335 334 333 333 333 334 333 333 331 329 330 330 332 328 329 324 324 325 326 321 324 327 330 331 334 335 335 335 335
328 330 330 332 334 332 333 334 333 332 331 330 329 333 334 334 334 334 334 336 337 337 338 338 340 340 341 340 338 337 336 336 335 335 334 333 333 333 335 334 334 332 332 326 326 329 331 329 328 324 319 320 320 320 319 323 326 329 328 333 335 335
326 327 328 330 330 331 332 330 330 330 332 332 333 332 332 332 333 335 335 335 335 336 336 337 338 339 340 339 337 336 334 334 335 335 335 333 332 333 335 336 335 333 330 329 327 326 329 329 328 330 324 320 318 318 319 319 322 326 329 333 332 333
324 325 326 326 328 330 330 330 328 326 325 326 326 327 327 328 331 333 333 336 337 337 336 336 337 337 338 339 336 335 334 333 332 334 335 335 335 335 334 335 335 334 332 331 330 327 325 330 330 330 329 328 326 321 318 319 322 320 325 328 327 330
320 320 322 324 324 327 324 326 326 326 326 324 323 326 329 331 331 332 333 332 332 334 336 336 336 336 337 337 337 335 335 334 334 333 335 334 334 334 335 334 335 334 333 332 330 326 326 326 328 328 329 329 329 327 326 324 321 317 318 325 326 329
314 315 315 319 320 321 320 320 321 322 324 323 323 323 326 329 331 332 332 331 331 332 333 335 336 335 336 336 336 334 334 334 334 334 335 333 333 334 335 336 336 335 334 333 329 328 326 327 325 326 329 328 328 328 324 325 324 324 319 319 323 327
311 310 310 313 317 316 319 317 317 318 318 320 321 322 325 327 328 330 330 331 330 331 332 333 334 335 336 336 336 335 334 333 333 333 335 334 334 334 334 334 334 334 332 333 332 331 329 327 326 326 326 327 328 326 324 326 325 324 323 320 319 321
309 309 309 309 311 313 314 316 314 314 313 314 316 317 319 319 321 324 326 327 329 330 331 332 333 334 335 336 336 336 335 333 333 333 335 334 333 333 333 334 334 334 334 333 333 333 330 329 327 327 327 328 326 325 325 324 325 322 321 322 321 321
308 308 308 307 309 309 311 312 312 312 312 311 312 313 312 313 316 318 319 322 325 327 330 331 332 333 334 335 335 336 335 335 334 334 335 334 333 333 333 334 334 334 334 333 332 332 332 330 328 327 326 327 327 327 326 325 324 323 324 320 318 319
304 306 305 306 307 307 309 309 310 311 311 311 311 311 311 311 313 313 315 317 320 323 325 328 331 332 333 334 334 334 335 335 335 334 334 334 334 334 334 334 333 333 333 334 334 332 332 331 328 328 327 327 328 329 329 327 328 327 325 325 324 323
302 304 304 304 305 305 307 307 309 309 309 312 311 311 310 310 312 312 313 314 316 317 320 321 324 327 330 333 334 334 334 334 334 335 335 334 334 334 334 334 333 332 332 332 333 333 331 331 330 328 327 328 329 329 329 330 329 328 328 328 326 323
301 302 303 303 302 304 306 307 307 309 310 309 309 310 309 309 310 311 312 313 314 315 315 317 319 322 326 330 332 333 334 335 335 335 336 335 335 335 334 333 333 333 332 333 334 333 333 333 332 331 330 328 328 329 329 330 330 329 328 327 325 324
301 301 301 301 301 302 303 305 307 308 310 309 310 309 308 311 309 309 310 311 312 314 314 315 317 320 322 324 328 331 333 334 334 335 336 336 336 335 335 334 333 333 334 334 334 334 333 333 331 331 331 329 328 329 329 330 330 329 330 329 328 327
302 301 301 307 302 301 301 303 305 305 307 311 310 310 309 309 308 308 309 309 309 312 313 314 316 317 319 322 324 326 329 331 333 334 335 335 335 335 334 333 333 333 333 335 333 333 333 333 332 332 331 330 329 329 329 330 330 330 330 330 330 329
302 301 301 305 303 302 302 302 301 302 304 305 305 304 305 305 306 307 308 308 308 309 311 313 314 316 317 319 321 322 325 329 332 334 334 335 335 335 334 333 332 332 332 334 334 333 333 333 333 333 332 331 330 330 330 331 330 330 331 331 331 330
Wind_Speed
3 3 3 3 2 2 3 8 7 8 8 8 8 9 9 10 10 10 9 9 9 6 4 2 4 3 7 4 5 5 5 3 3 4 3 3 3 4 4 4 3 3 3 4 5 5 6 7 8 8 8 7 6 3 3 4 3 3 1 3 4 3
4 4 4 4 2 2 0 5 2 1 2 4 6 7 5 3 4 2 8 6 3 5 4 4 3 4 3 3 5 7 6 5 4 5 5 3 4 4 4 3 4 4 4 5 6 3 3 5 7 7 7 8 4 4 4 4 3 2 2 2 3 5
4 4 4 4 3 1 1 2 3 2 1 4 2 2 0 2 0 1 1 1 2 3 4 3 3 3 3 5 5 7 6 6 5 5 5 4 3 4 4 4 4 5 5 5 3 3 3 3 3 5 5 4 3 4 4 4 3 2 3 3 3 7
4 4 4 3 3 2 1 2 3 3 2 1 1 0 0 0 1 1 2 2 2 3 3 3 4 5 5 2 2 4 7 6 6 6 6 4 2 3 4 5 5 6 3 2 2 3 3 4 3 3 3 4 4 4 5 4 4 2 2 3 3 8
3 3 3 3 4 3 2 3 3 3 3 3 2 2 1 1 1 2 2 2 2 2 3 3 3 2 3 3 2 1 2 1 2 3 4 3 2 1 2 3 4 4 3 3 3 4 3 4 3 3 4 4 4 4 4 4 4 3 2 3 3 8
2 2 3 2 2 2 2 2 3 3 3 3 4 3 2 1 1 1 1 2 2 3 3 3 3 4 4 4 3 3 3 3 2 3 3 4 3 3 2 0 2 3 3 3 3 3 3 3 4 4 4 4 4 4 4 4 4 3 2 2 3 8
3 3 3 3 4 2 0 0 1 3 4 3 4 4 4 2 1 1 2 2 3 2 3 3 4 4 4 4 4 4 4 3 3 3 2 4 4 3 3 3 2 3 3 3 3 3 4 3 3 4 4 4 4 4 4 4 4 3 2 2 3 8
4 5 4 4 4 3 1 2 2 4 5 5 4 4 4 4 2 2 2 2 3 3 3 3 4 4 5 4 5 5 4 4 4 3 3 3 3 3 3 3 2 3 3 3 3 4 3 4 4 3 4 4 5 4 4 4 4 4 2 3 3 6
4 5 5 5 5 3 3 4 4 4 4 6 4 4 4 4 4 3 3 3 3 4 4 4 5 4 3 4 4 4 4 4 4 4 4 3 3 4 4 3 3 3 3 3 4 4 4 4 4 3 4 5 4 4 4 4 4 4 3 3 3 4
10 8 6 6 3 1 4 6 7 6 3 5 5 4 5 4 4 4 4 4 5 5 5 6 6 4 4 4 4 4 4 4 4 3 3 4 3 3 3 3 2 3 3 3 4 4 4 5 5 4 4 4 5 4 5 5 4 4 4 3 3 4
7 8 10 11 10 10 8 7 7 7 5 6 5 5 5 4 4 5 4 4 5 6 6 6 6 6 5 4 4 4 4 3 3 3 3 3 3 3 3 4 3 3 3 3 4 3 3 5 5 5 4 4 4 5 5 5 5 4 3 4 3 4
1 3 6 8 10 9 9 10 8 7 7 7 5 5 5 5 5 5 5 6 5 5 6 6 7 6 6 5 4 5 4 4 5 4 4 4 4 3 4 3 3 3 3 3 4 4 3 4 5 5 5 5 4 5 6 5 5 4 4 4 4 4
5 3 4 6 7 4 1 0 4 6 6 7 7 5 6 6 6 5 5 6 6 6 6 6 7 8 8 6 6 5 5 6 5 4 4 5 4 3 3 3 3 3 3 5 3 4 3 4 5 6 5 6 4 5 5 5 5 4 5 4 4 4
4 6 6 4 4 1 3 4 6 5 5 5 6 6 6 5 5 5 5 6 7 8 7 6 6 7 7 6 7 7 6 6 5 4 4 4 4 4 4 4 5 4 5 4 5 4 3 5 5 5 6 6 5 6 5 5 5 5 5 5 4 4
4 3 4 4 4 1 1 4 1 4 5 5 5 5 5 4 5 5 6 6 7 8 8 7 7 6 6 6 6 6 6 6 4 4 4 4 4 4 4 6 5 6 6 5 5 6 4 5 5 6 6 5 6 6 5 6 5 5 5 4 4 4
4 4 4 4 3 2 2 2 4 3 4 5 6 6 5 5 5 5 6 7 9 9 9 7 8 8 6 6 7 6 7 5 5 5 4 4 4 4 4 5 6 6 7 7 5 6 3 5 5 6 7 6 6 5 6 5 5 4 3 3 4 4
2 2 3 3 3 3 4 5 5 5 5 5 6 6 5 5 6 6 5 7 8 9 9 9 8 9 7 7 6 7 6 6 5 6 5 5 4 4 4 5 5 6 7 7 4 5 5 5 6 6 7 7 7 5 6 5 4 3 3 4 5 4
4 3 2 3 5 5 4 4 4 4 4 5 6 5 5 5 6 5 6 8 9 9 9 10 11 9 8 8 7 7 5 5 6 6 7 7 7 6 5 5 6 5 6 4 2 4 8 9 6 6 7 8 7 5 6 4 3 3 4 4 4 5
5 4 1 1 2 2 0 1 2 2 3 5 4 4 5 5 5 5 7 7 7 8 9 10 10 10 8 9 8 7 7 6 6 6 7 7 6 6 7 6 6 6 1 2 5 7 7 6 8 6 6 9 6 5 4 3 2 3 4 3 4 4
5 4 3 1 1 1 1 2 2 1 2 2 3 3 4 4 4 5 6 6 6 6 7 9 9 9 8 9 9 9 9 8 7 7 6 7 7 8 9 8 8 6 4 5 6 6 5 5 6 8 7 5 3 3 3 2 3 3 2 3 3 3
4 4 3 4 3 2 1 1 1 1 2 3 3 3 4 4 4 5 6 7 6 7 7 9 9 9 9 9 8 7 7 7 8 8 8 9 7 8 7 7 7 7 8 7 7 6 7 3 3 5 5 4 2 1 1 1 3 3 3 2 2 3
5 5 5 4 3 2 1 1 1 3 3 3 4 4 5 4 4 4 4 6 6 7 7 7 8 8 8 8 7 7 7 8 8 9 9 8 7 7 8 7 6 6 6 7 6 7 5 4 3 5 6 4 2 1 1 1 3 3 3 2 3 4
4 4 4 4 4 4 2 2 1 2 2 3 3 3 4 4 4 5 6 6 6 6 6 6 7 8 7 7 8 7 7 6 7 8 8 8 9 9 9 10 9 8 7 6 7 5 8 8 5 1 5 2 2 3 2 1 1 1 2 3 3 4
5 4 4 4 3 4 4 4 3 3 4 4 4 3 4 5 5 5 6 4 4 5 6 6 7 8 8 6 6 6 6 5 7 7 7 8 9 10 9 9 8 10 8 7 6 4 7 8 6 6 4 3 2 3 1 4 4 3 1 1 3 3
5 5 4 6 5 3 3 3 4 3 3 3 3 3 3 4 5 5 6 5 6 6 7 8 8 8 8 8 6 6 6 6 6 7 7 8 8 9 9 9 9 9 11 9 7 4 5 9 8 7 7 3 3 1 3 2 2 4 2 1 1 2
5 5 6 6 6 5 6 6 6 6 6 5 4 5 6 6 5 4 5 5 5 5 7 8 8 8 8 8 6 6 7 7 8 7 7 8 8 7 9 9 10 9 9 9 7 6 6 8 7 6 7 4 5 3 3 2 3 3 2 1 2 2
4 5 5 5 6 5 6 6 7 7 6 7 6 5 5 4 4 5 5 6 7 6 6 7 8 7 8 8 8 7 7 8 8 8 8 8 9 9 8 8 7 8 8 8 8 8 8 5 5 4 5 6 1 1 3 5 4 3 2 1 2 2
3 4 4 4 5 6 5 5 5 6 6 6 6 6 6 5 4 4 4 5 5 6 7 6 6 7 7 7 7 7 7 8 8 9 9 9 10 9 8 7 8 9 7 8 10 9 8 7 9 6 8 8 4 4 4 1 3 6 3 2 2 1
5 6 6 5 5 6 6 5 5 5 5 5 4 4 4 4 5 5 5 4 4 5 6 7 6 7 7 7 8 8 8 8 8 8 9 8 9 9 10 9 9 8 9 9 9 9 8 8 9 10 7 5 4 3 2 1 3 2 5 5 5 3
5 5 4 5 5 6 6 5 6 6 6 5 5 4 3 4 5 6 6 6 5 5 5 6 6 6 7 7 7 8 8 9 10 9 9 9 9 10 9 9 10 9 8 10 8 9 10 8 8 8 9 7 7 4 3 2 2 2 2 2 6 4
3 3 4 5 5 5 4 4 5 4 4 6 6 6 7 6 5 5 5 6 7 6 5 5 6 6 7 8 8 9 8 9 9 10 9 9 9 9 9 9 9 9 9 10 8 8 9 9 8 8 10 9 10 10 9 7 7 5 5 3 1 4
3 3 4 4 5 5 4 4 3 3 4 4 4 5 6 7 7 7 6 6 6 5 6 6 4 5 6 7 8 8 9 10 9 9 9 9 9 9 9 9 8 8 9 9 9 8 8 9 10 8 10 10 10 9 8 9 7 7 7 6 7 6
3 2 1 1 1 2 2 3 3 3 3 3 3 3 3 4 4 5 5 5 6 5 5 6 7 7 5 6 6 8 8 8 8 8 8 8 9 9 9 9 9 10 9 10 10 10 9 10 10 10 10 9 9 9 9 8 7 7 7 6 6 6
1 3 2 3 2 1 1 2 2 2 3 2 3 3 3 4 4 4 4 5 5 6 6 5 6 7 7 8 7 7 7 8 8 9 9 10 10 10 10 9 9 10 10 10 9 11 10 11 10 11 9 9 9 9 9 8 8 7 7 7 5 7
2 2 2 2 2 2 3 3 3 3 3 2 4 4 4 4 4 5 4 3 4 4 5 6 6 7 8 8 9 8 7 7 8 9 9 9 9 9 9 9 9 10 9 9 10 10 10 11 11 12 11 10 9 9 9 8 8 8 8 8 8 7
3 3 4 4 4 2 1 2 2 3 4 4 3 3 4 4 5 4 5 5 4 4 5 5 6 7 8 8 9 9 9 8 8 8 9 10 10 9 9 9 9 9 10 7 9 11 10 11 12 12 12 10 9 10 8 8 8 8 7 8 7 7
5 4 6 5 5 4 5 5 4 2 3 3 4 4 5 6 6 5 5 5 5 5 5 4 6 6 7 8 9 9 10 9 8 7 8 9 10 10 10 10 10 10 10 9 10 11 10 10 11 11 10 13 11 9 9 9 8 8 8 7 6 7
Wind_Direction
76 76 75 71 85 96 171 178 182 178 184 188 184 186 186 184 188 190 188 187 186 163 144 128 168 156 182 173 185 184 175 182 215 219 206 213 227 238 258 268 275 280 296 304 315 331 347 336 335 347 347 343 358 6 285 284 285 292 230 211 184 177
77 83 72 52 52 61 175 166 116 158 179 203 198 199 197 200 203 201 192 191 148 145 138 130 128 175 147 166 190 194 192 187 205 209 211 213 229 236 247 262 275 286 293 304 313 6 346 332 338 345 347 338 339 298 287 283 289 263 223 194 181 191
71 79 88 79 74 63 50 78 116 117 134 202 232 203 313 202 32 138 136 133 122 117 138 136 129 142 135 170 176 199 202 195 196 200 205 217 243 253 257 261 272 279 284 301 352 360 335 322 336 348 334 324 303 303 299 289 280 229 219 199 169 199
85 87 105 112 102 103 82 67 105 110 104 81 52 53 348 82 124 116 141 94 99 118 125 149 172 174 179 93 212 221 210 213 209 203 208 208 222 268 273 289 290 282 302 1 349 339 320 308 320 323 300 300 306 304 299 292 291 262 205 213 189 202
83 102 114 135 141 134 115 108 114 115 110 95 85 80 70 67 138 119 110 104 103 124 129 150 122 100 125 136 115 105 69 90 182 176 216 125 132 106 17 357 344 341 351 336 331 308 318 307 312 313 301 299 301 294 288 291 290 274 227 222 203 205
75 106 121 114 100 152 158 110 148 139 117 106 120 122 103 111 104 129 99 107 115 112 153 157 162 153 155 153 165 164 141 109 92 174 151 137 141 155 192 67 326 312 308 329 315 298 297 302 307 301 295 297 293 286 285 288 288 266 235 209 216 213
134 147 126 97 87 97 174 34 101 146 148 144 148 141 157 143 163 129 118 151 152 167 184 188 191 188 182 171 182 194 174 138 131 158 148 150 158 163 193 225 231 266 311 311 296 292 293 287 276 295 297 296 292 286 287 285 286 275 216 205 208 221
163 157 146 123 115 132 138 166 203 196 173 179 165 166 154 160 145 140 145 208 182 181 199 212 217 211 208 180 194 193 181 170 158 155 139 148 168 186 199 203 235 265 287 290 290 292 297 289 287 272 292 292 290 287 286 274 270 266 227 207 194 216
175 165 141 139 140 150 168 177 196 215 189 187 180 174 163 153 161 166 172 198 197 184 198 223 228 229 217 217 207 197 190 192 178 168 147 157 173 179 191 198 212 248 248 275 276 285 288 287 282 272 268 289 289 289 284 272 259 255 229 200 206 210
176 164 138 91 60 225 201 195 194 206 202 196 191 173 159 172 174 170 182 193 215 187 198 209 224 231 221 227 217 208 196 196 193 175 160 172 170 181 190 171 210 237 253 252 273 276 288 292 288 280 268 271 279 283 277 273 258 238 222 203 202 217
173 153 144 154 175 186 194 200 197 195 197 208 191 186 178 179 187 200 201 193 214 215 195 203 210 212 222 226 221 216 217 189 194 191 179 182 170 181 171 191 192 222 239 257 263 268 273 282 287 289 283 277 277 278 271 260 257 234 219 207 202 204
41 135 144 167 186 196 192 187 189 190 198 204 197 199 198 194 201 201 206 214 218 224 210 207 207 207 208 209 212 215 217 204 212 186 184 184 193 182 185 187 207 204 220 240 268 264 258 264 280 284 289 281 273 266 267 262 250 237 222 207 199 201
140 131 147 186 213 212 37 321 201 202 202 196 200 201 207 207 206 199 199 212 227 227 221 208 210 211 210 205 205 205 212 219 214 191 179 183 195 192 180 185 206 211 241 259 251 264 257 251 271 280 284 280 271 262 259 260 250 229 225 210 201 196
135 150 166 193 258 263 183 198 191 194 202 205 206 204 210 208 206 205 203 205 218 228 226 212 207 211 208 204 204 206 209 219 211 195 174 173 199 202 224 228 241 225 234 239 251 253 273 279 270 274 272 276 273 264 266 261 250 236 213 209 194 193
127 123 167 190 205 228 274 285 296 187 193 200 209 215 212 204 207 210 206 209 213 222 225 216 210 208 209 207 208 210 211 214 179 184 192 192 197 203 214 236 243 246 250 246 250 262 262 269 284 285 280 279 268 270 259 255 251 240 207 194 176 192
131 142 161 181 213 183 149 250 312 259 211 200 207 210 206 210 210 209 211 215 210 215 221 217 216 213 212 214 214 214 216 197 188 182 191 187 189 207 222 235 240 241 255 254 249 266 259 266 269 279 281 278 270 262 263 254 242 227 192 172 179 179
94 135 149 165 166 172 171 193 220 225 212 206 209 212 212 204 211 214 215 219 212 211 212 215 210 210 213 216 219 221 216 196 180 185 183 181 196 207 215 226 238 234 236 256 266 318 305 270 279 277 284 283 272 264 255 249 233 206 165 185 178 178
54 63 102 150 177 192 198 203 217 223 217 215 218 216 212 208 215 213 216 222 218 214 215 214 213 209 211 215 216 221 215 196 189 187 192 182 203 196 201 203 242 246 230 229 111 247 276 291 283 284 290 287 282 268 257 243 224 199 183 189 186 184
35 35 49 184 195 199 282 288 248 235 227 222 217 216 213 215 220 212 220 224 221 220 223 217 215 212 210 212 212 212 209 197 193 202 198 187 199 204 210 199 216 245 198 107 191 226 229 256 295 292 286 282 277 261 251 226 202 194 194 199 189 186
27 11 5 327 248 339 343 288 299 0 313 287 264 246 221 224 221 225 224 218 218 226 229 228 221 218 218 216 213 209 206 192 185 187 195 203 207 213 210 193 187 205 193 198 192 237 236 231 249 278 282 280 270 273 230 204 188 200 174 193 191 172
5 3 17 22 47 96 136 285 38 155 228 247 251 234 242 233 234 230 226 218 219 226 226 229 225 219 222 225 223 219 209 198 188 186 187 205 206 221 214 201 185 179 202 220 209 202 241 245 288 284 268 267 287 348 96 175 207 191 203 175 172 197
5 4 5 1 0 347 337 265 199 243 237 254 248 248 258 240 239 246 249 239 222 224 226 228 232 225 224 221 225 222 220 215 203 201 193 194 187 215 222 216 196 172 187 203 221 170 164 118 244 237 246 243 299 342 56 100 175 214 196 196 184 205
16 5 356 350 9 355 319 315 270 259 220 273 267 266 267 262 262 254 244 239 244 247 239 236 237 239 235 228 226 226 228 226 215 210 208 197 198 207 213 209 196 186 186 201 222 165 163 174 219 231 276 213 266 193 301 6 327 175 200 193 184 212
27 16 1 355 6 352 335 330 293 267 256 234 279 286 277 281 274 273 272 270 259 255 257 254 248 246 246 238 231 230 232 226 219 215 218 215 211 210 203 200 192 192 186 200 202 179 159 183 180 138 248 239 210 141 160 249 226 279 312 220 188 214
31 24 16 18 6 347 5 10 347 307 269 286 264 283 289 301 301 293 291 274 261 247 245 244 246 249 246 243 227 222 223 229 230 219 218 220 217 217 211 198 191 188 187 195 202 158 151 180 200 201 187 157 92 174 207 241 122 262 5 284 293 250
31 21 20 17 6 12 23 26 26 27 27 19 13 10 360 341 327 311 290 295 277 256 252 245 238 233 238 246 228 218 221 224 225 228 230 232 224 216 212 204 194 194 192 192 191 185 178 175 188 219 257 232 169 167 176 212 133 245 316 228 293 272
38 29 13 19 14 14 31 22 29 30 25 24 13 15 348 326 310 304 306 305 302 299 272 259 254 246 237 227 225 219 219 222 225 226 227 231 233 223 214 210 197 194 199 189 183 204 204 179 157 198 241 280 4 11 136 135 193 71 306 304 256 243
37 42 23 15 28 27 40 30 33 30 29 27 14 356 347 328 284 290 272 270 275 283 285 274 263 256 251 245 234 222 221 226 226 224 225 227 232 232 225 218 205 199 193 193 183 197 201 174 183 196 201 215 203 177 186 130 150 170 163 181 269 316
34 27 14 14 30 30 36 41 40 35 33 22 3 356 342 349 347 335 310 300 278 274 281 280 272 269 262 250 251 239 225 222 226 229 229 232 234 233 229 222 213 206 204 203 198 194 190 190 185 205 166 200 191 202 181 117 117 93 175 204 251 225
34 20 4 14 21 26 27 25 37 24 26 8 0 347 1 5 359 349 349 349 344 322 297 287 278 269 268 262 258 250 236 228 227 227 231 231 231 230 231 227 218 214 212 211 201 198 196 186 188 195 189 171 185 187 192 180 171 121 43 185 233 211
15 359 5 12 17 21 14 23 27 20 17 7 357 355 356 4 3 360 0 350 347 336 313 290 281 274 263 260 251 248 247 241 231 233 230 229 226 223 224 227 223 217 218 216 207 203 204 195 184 194 198 193 196 186 188 183 191 192 173 180 195 257
7 7 2 1 5 1 5 4 7 9 9 357 357 357 355 346 346 349 352 346 338 332 336 323 296 276 270 263 256 247 243 244 242 235 229 224 225 221 222 223 222 216 217 217 211 205 206 202 190 191 203 202 205 201 199 197 188 178 182 198 196 220
354 323 308 296 324 317 341 340 340 341 339 342 342 342 332 323 328 332 335 333 336 337 333 327 336 327 316 298 280 265 250 239 239 238 234 231 230 226 224 222 219 217 213 213 215 211 208 207 198 193 200 208 205 200 206 201 176 181 195 181 181 211
250 237 239 221 217 217 251 276 288 291 303 318 313 319 313 308 307 305 305 316 323 325 324 322 319 319 316 310 298 287 280 261 244 237 232 232 230 226 224 223 222 218 215 215 213 214 214 211 208 206 197 198 205 203 208 193 186 176 172 155 170 188
279 276 248 233 199 212 232 240 244 256 271 281 291 301 300 296 301 307 297 288 292 299 307 312 313 310 312 307 303 301 289 278 271 258 248 242 235 230 225 223 224 223 220 213 214 214 217 211 212 210 205 201 200 206 205 194 181 190 169 182 176 166
239 268 282 300 304 292 233 217 229 246 244 258 284 290 283 290 288 281 294 298 288 273 281 291 300 305 305 308 309 307 303 289 277 269 259 248 238 229 224 225 226 224 224 213 215 215 216 213 214 208 211 206 201 207 200 194 192 190 184 186 183 162
268 283 286 281 289 308 317 331 299 247 238 246 246 258 276 284 287 287 288 288 288 283 274 276 290 298 304 310 307 304 302 299 289 271 263 258 249 236 227 224 225 223 223 215 216 217 212 213 214 209 209 209 209 203 198 198 196 194 191 187 178 173